Weather in Pelevino

Russia / Ivanovo Oblast     57°19′11″N   42°56′43″E
temp.,
°C
wind,
m/s
gust,
m/s
humid.,
%
clouds,
%
prec.,
mm/h
press.,
hPa
HPBL,
m
17 may, mon
mon1700:00+13w44830 0.0 101437
03:00+12w33860 0.0 101518
06:00+12wnw118637 0.0 101631
09:00+14ese118423 0.0 1017161
12:00+14ene218079 0.0 1018256
15:00+18ne22635 0.0 1017158
18:00+18nne227087 0.6 101532
21:00+16ene557694 1.1 101531
18 may, tue
tue1800:00+14ese4694100 0.8 101569
03:00+13ese349739 1.3 101546
06:00+13ese459860 0.0 101665
09:00+16ese4688100 0.0 1016144
12:00+19se477299 0.0 1016219
15:00+19sse46709 0.0 1015159
18:00+20sse487013 0.0 1014130
21:00+17ese58825 0.0 101479
19 may, wed
wed1900:00+17ese611894 0.0 1014152
03:00+14ese510945 0.0 1014123
06:00+14ese510911 0.0 1014141
09:00+16ese610800 0.0 1014197
12:00+19se611694 0.0 1014395
15:00+20se610650 0.0 1013467
18:00+19se611720 0.0 1013214
21:00+17ese612770 0.0 1013165
20 may, thu
thu2000:00+16ese612790 0.0 1013170
03:00+14se510830 0.0 1013134
06:00+14se510840 0.0 1013161
09:00+16se59790 0.0 1012219
12:00+18se711710 0.0 1011538
15:00+18sse814740 0.0 1011593
18:00+16sse7147974 0.2 1010321
21:00+13sse7129175 1.2 1011243
21 may, fri
fri2100:00+12sse712925 0.0 1011225
03:00+11se6119621 0.0 1011207
06:00+11sse7129674 0.0 1011273
09:00+14sse8138411 0.0 1010543
12:00+15ssw101567100 0.2 1011676
15:00+15sw91465100 0.3 1013642
18:00+13sw81373100 0.0 1013549
21:00+11sw8128095 0.1 1016424